Wind_Speed
28 28 29 29 28 28 27 27 27 28 28 28 28 29 29 29 29 29 29 28 29 29 29 28 28 28 28 28 29 29 30 29 29 29 29 30 30 31
27 27 27 27 27 27 27 26 27 26 25 26 26 27 28 27 28 28 28 28 27 28 27 27 27 27 27 27 28 29 29 29 29 29 28 29 30 29
25 25 25 25 25 25 26 26 26 25 25 24 25 25 25 25 26 26 26 26 26 26 26 26 26 26 26 26 26 27 28 29 29 29 28 28 28 28
23 23 22 23 23 23 23 23 24 24 23 22 23 23 23 23 24 24 24 25 25 25 25 25 24 25 24 24 24 25 26 26 27 26 26 27 26 26
21 20 20 20 20 20 20 20 21 21 21 21 22 22 22 21 21 22 22 22 22 23 23 23 23 23 23 22 23 23 23 24 24 23 24 24 24 24
17 17 17 17 17 17 18 18 18 19 20 20 20 20 20 19 19 19 19 19 20 21 21 21 21 21 21 21 21 21 22 21 21 21 21 21 22 23
14 15 15 15 15 15 16 17 17 17 17 17 17 17 17 17 16 16 17 17 17 17 18 18 19 19 19 19 19 19 19 19 20 19 19 20 21 22
14 13 13 12 12 12 13 13 13 13 13 13 13 12 12 13 13 14 14 14 14 14 15 15 15 16 16 16 17 17 17 18 18 18 18 19 19 20
11 11 10 10 10 10 9 9 8 8 8 9 8 8 9 10 10 11 11 12 12 12 12 12 13 13 14 14 14 15 15 15 16 17 18 19 19 19
9 8 8 7 7 7 6 6 5 5 4 4 5 5 6 6 7 7 7 8 8 9 10 10 11 12 11 12 12 13 13 14 15 16 17 18 19 20
8 7 7 7 7 6 4 3 3 2 2 2 3 4 4 4 3 4 5 5 5 6 7 7 8 9 10 11 12 12 12 13 14 15 17 18 20 21
8 8 7 6 6 5 4 4 3 2 1 0 1 2 3 2 1 2 3 4 4 5 5 6 7 9 9 10 11 11 11 12 14 15 17 19 20 21
9 9 9 7 6 6 5 5 4 3 3 2 1 0 1 2 2 2 3 3 4 4 5 7 7 8 8 9 10 11 12 13 15 16 17 18 20 20
9 9 9 9 7 7 6 5 4 4 4 3 2 1 1 1 1 2 2 3 3 5 6 7 7 7 9 10 11 12 13 14 16 17 18 19 20 21
9 9 9 9 9 8 7 6 5 4 4 4 3 2 1 2 3 2 2 2 3 5 6 6 6 8 9 10 11 12 14 16 17 18 19 20 21 22
10 10 10 9 9 8 7 6 6 5 4 4 3 3 3 3 3 3 3 4 5 6 6 7 8 10 10 11 12 13 15 17 18 19 20 22 23 24
10 10 10 9 8 8 8 8 7 6 5 4 3 3 4 4 3 4 5 5 6 7 7 8 9 10 11 12 13 15 17 18 20 21 21 22 23 25
10 10 9 9 9 8 8 7 7 6 6 5 4 4 4 4 4 5 5 6 7 8 9 10 10 12 13 15 17 18 19 20 21 22 23 23 23 25
9 9 8 8 8 8 8 8 7 7 6 5 5 5 5 6 6 6 7 8 8 9 11 12 13 14 15 16 18 20 21 22 23 23 24 25 25 26
7 7 8 8 8 8 8 8 7 7 6 6 6 6 7 8 8 9 10 10 11 11 13 14 16 17 18 19 20 21 23 24 24 25 25 26 27 27
7 7 8 7 7 8 8 7 7 7 7 8 8 8 9 9 10 11 12 12 13 14 15 17 18 19 20 21 21 22 24 25 26 26 27 28 28 28
7 7 8 8 8 8 8 8 8 9 9 10 10 11 10 11 12 12 12 14 15 17 18 19 20 21 22 23 24 25 26 27 27 28 29 30 31 31
8 8 8 9 9 10 10 10 10 11 11 11 12 12 13 14 14 15 16 17 18 20 21 21 23 24 25 26 27 28 28 29 29 29 30 32 32 33
Wind_Direction
281 280 278 277 276 274 272 271 270 269 268 268 267 265 264 263 262 261 261 260 260 260 261 260 260 260 260 261 261 263 264 264 265 265 266 264 263 262
282 282 280 277 275 272 270 269 268 268 268 267 267 265 264 264 263 261 261 259 259 258 260 261 260 259 259 260 261 261 262 264 264 264 265 264 263 261
285 284 282 279 277 273 271 269 268 267 267 266 265 265 264 263 261 261 260 259 260 259 259 259 259 259 258 260 261 261 262 264 265 265 264 265 264 263
286 285 283 281 280 277 274 271 270 269 268 266 265 265 263 262 260 260 259 260 259 259 259 259 259 259 259 261 260 262 264 265 264 264 265 265 266 266
288 287 286 284 282 279 276 272 271 270 268 267 265 266 263 262 260 260 259 260 259 259 257 256 258 258 260 261 261 263 264 264 262 262 263 265 267 266
292 289 288 286 285 281 276 273 272 270 269 268 268 265 261 260 260 261 261 260 259 258 257 257 257 258 258 260 260 261 261 262 262 263 263 264 266 266
300 298 296 293 288 285 279 275 273 271 269 268 267 262 260 259 260 260 259 258 258 257 256 255 256 256 256 258 259 260 260 260 261 261 262 263 264 265
306 304 303 298 298 294 285 280 276 272 268 264 264 259 257 257 257 256 257 257 255 256 255 254 254 255 255 257 257 257 260 261 260 261 263 264 266 266
318 317 314 309 306 306 297 288 280 273 268 263 261 258 257 254 255 256 256 257 256 252 252 253 254 254 255 258 260 261 262 262 262 264 266 266 267 269
330 331 331 330 326 321 309 296 286 281 274 263 257 253 253 251 252 251 254 255 255 252 249 250 254 257 259 262 264 264 265 267 269 270 271 270 271 272
341 341 341 344 348 349 345 340 333 315 282 256 248 242 247 251 251 250 249 246 251 254 253 253 258 261 266 268 269 271 272 273 274 276 276 276 276 276
4 1 358 358 359 6 16 23 24 22 16 7 221 218 224 254 277 253 245 251 255 257 258 259 265 266 268 271 275 274 275 278 280 282 282 281 281 282
17 18 17 17 20 23 34 43 45 55 66 64 41 343 268 264 266 270 267 264 262 272 271 269 273 273 275 280 280 278 279 283 287 289 289 287 286 286
23 23 24 28 35 39 49 59 60 57 56 53 41 27 12 297 281 285 282 280 283 285 282 281 278 282 287 288 287 287 289 293 294 295 294 291 290 290
33 36 34 36 43 49 55 56 55 50 43 43 44 38 7 330 326 317 310 319 312 306 304 297 297 299 298 297 296 296 298 301 301 298 296 296 294 293
41 42 43 44 46 47 51 52 51 47 46 44 37 22 2 346 326 321 324 318 314 315 316 316 313 313 313 311 307 305 304 304 303 302 300 299 299 297
44 43 44 46 49 46 43 43 40 36 32 29 26 12 4 356 347 332 325 319 316 313 312 314 316 319 318 316 314 312 310 308 307 306 305 304 301 299
43 42 43 44 45 41 35 31 29 24 22 23 19 16 11 0 341 330 326 321 319 315 312 313 316 318 319 318 316 315 313 311 310 310 309 308 305 303
40 37 37 34 32 29 26 23 18 15 14 12 3 354 349 346 340 331 327 324 321 319 317 318 318 318 318 317 316 316 316 314 313 312 310 310 309 308
28 25 23 22 21 16 13 13 11 4 357 349 343 338 333 332 328 323 321 318 318 319 320 318 317 316 316 317 317 318 318 316 314 312 312 313 312 310
9 8 5 3 3 3 2 359 355 350 343 336 331 327 323 320 319 318 317 316 316 316 316 316 315 315 316 317 317 318 318 317 315 313 313 313 313 312
346 348 348 345 344 344 344 341 337 332 327 323 322 320 316 316 316 314 314 314 314 314 314 314 313 314 314 315 315 315 316 315 315 314 313 313 313 313
328 327 327 327 328 330 330 328 324 323 321 319 318 316 315 315 314 312 311 310 311 311 311 310 311 311 312 312 313 313 314 314 314 313 313 312 312 312
Height
5758 5757 5755 5754 5753 5752 5751 5751 5752 5752 5752 5752 5752 5752 5753 5753 5754 5754 5755 5755 5756 5757 5758 5759 5760 5761 5761 5762 5763 5764 5764 5764 5765 5765 5765 5765 5765 5765
5750 5749 5747 5745 5744 5743 5742 5742 5743 5743 5744 5743 5743 5744 5744 5745 5745 5746 5746 5747 5748 5749 5750 5751 5752 5753 5754 5755 5755 5756 5756 5756 5757 5757 5757 5757 5757 5757
5743 5741 5739 5737 5736 5735 5735 5735 5735 5735 5735 5735 5736 5736 5737 5737 5737 5738 5739 5740 5741 5742 5742 5743 5744 5745 5746 5747 5748 5748 5749 5749 5749 5749 5748 5749 5748 5749
5735 5734 5732 5730 5729 5728 5727 5727 5727 5727 5728 5728 5728 5729 5729 5730 5730 5731 5732 5733 5734 5734 5735 5736 5737 5738 5739 5740 5740 5741 5741 5741 5741 5741 5741 5741 5741 5741
5729 5728 5726 5724 5723 5721 5721 5721 5721 5721 5721 5721 5722 5722 5723 5724 5724 5725 5725 5726 5727 5728 5729 5730 5731 5731 5732 5733 5734 5734 5734 5734 5734 5734 5734 5734 5733 5733
5724 5722 5720 5718 5717 5716 5715 5715 5715 5715 5715 5715 5715 5716 5717 5717 5718 5719 5719 5720 5721 5721 5722 5723 5724 5725 5726 5727 5727 5727 5727 5727 5727 5727 5727 5727 5727 5727
5720 5718 5715 5714 5712 5711 5710 5709 5709 5709 5709 5709 5709 5710 5711 5711 5712 5713 5714 5714 5715 5716 5716 5718 5719 5719 5720 5720 5721 5721 5721 5721 5721 5721 5721 5721 5720 5720
5716 5714 5712 5710 5708 5706 5705 5705 5704 5704 5704 5705 5705 5706 5706 5707 5708 5708 5709 5709 5710 5711 5712 5712 5713 5714 5715 5715 5716 5716 5715 5715 5715 5715 5715 5714 5714 5713
5713 5711 5709 5707 5705 5704 5702 5702 5701 5701 5701 5702 5702 5703 5703 5704 5704 5705 5705 5705 5706 5707 5708 5708 5709 5710 5710 5710 5711 5711 5710 5710 5710 5709 5709 5708 5708 5707
5712 5709 5707 5705 5703 5702 5700 5700 5699 5699 5699 5699 5700 5701 5701 5701 5702 5702 5702 5703 5703 5704 5705 5705 5705 5706 5706 5706 5706 5706 5706 5706 5705 5704 5703 5703 5702 5701
5711 5709 5706 5704 5703 5701 5700 5699 5698 5698 5698 5698 5698 5699 5699 5700 5700 5700 5701 5701 5701 5702 5702 5702 5703 5703 5703 5703 5703 5702 5702 5701 5700 5699 5698 5697 5696 5694
5711 5708 5706 5704 5703 5701 5700 5699 5698 5698 5698 5698 5698 5698 5699 5699 5699 5699 5699 5700 5700 5700 5700 5700 5700 5700 5700 5700 5699 5699 5698 5697 5696 5694 5693 5691 5690 5688
5711 5709 5707 5705 5704 5702 5701 5700 5699 5699 5698 5698 5699 5699 5699 5699 5699 5699 5699 5699 5699 5699 5699 5698 5698 5698 5697 5697 5696 5695 5694 5693 5691 5690 5688 5686 5684 5682
5713 5711 5709 5706 5705 5703 5702 5702 5701 5700 5700 5699 5699 5699 5699 5699 5699 5698 5698 5698 5698 5698 5697 5697 5696 5695 5695 5694 5693 5692 5690 5688 5686 5684 5682 5680 5678 5676
5714 5712 5710 5708 5707 5705 5704 5703 5703 5702 5701 5701 5700 5700 5699 5699 5699 5698 5698 5697 5697 5696 5696 5695 5694 5693 5692 5691 5689 5688 5686 5684 5681 5679 5677 5674 5672 5669
5716 5715 5713 5711 5709 5708 5707 5706 5705 5704 5703 5702 5701 5701 5700 5699 5698 5698 5697 5697 5696 5695 5694 5693 5692 5690 5689 5687 5686 5684 5681 5679 5676 5673 5671 5668 5665 5662
5719 5717 5715 5713 5712 5710 5709 5708 5706 5705 5704 5703 5702 5702 5701 5700 5699 5698 5697 5696 5695 5694 5693 5692 5690 5688 5686 5684 5682 5680 5677 5674 5671 5668 5665 5662 5659 5655
5721 5719 5718 5716 5714 5712 5711 5710 5708 5707 5706 5704 5703 5702 5701 5700 5699 5698 5697 5696 5694 5693 5691 5690 5688 5686 5684 5681 5678 5675 5672 5669 5666 5662 5659 5655 5653 5649
5723 5721 5719 5718 5716 5714 5712 5711 5709 5708 5707 5705 5704 5703 5702 5700 5699 5697 5696 5695 5693 5691 5689 5687 5685 5683 5680 5678 5675 5671 5667 5664 5660 5656 5653 5649 5645 5642
5724 5723 5721 5719 5717 5716 5714 5712 5710 5709 5707 5706 5704 5702 5701 5700 5698 5696 5695 5693 5691 5689 5687 5684 5682 5679 5676 5673 5670 5666 5662 5657 5653 5650 5646 5642 5638 5634
5725 5723 5722 5720 5718 5716 5715 5713 5711 5709 5707 5705 5703 5702 5700 5698 5696 5694 5692 5690 5688 5686 5684 5681 5678 5675 5671 5668 5665 5661 5657 5652 5647 5643 5639 5635 5631 5626
5725 5723 5722 5720 5718 5716 5714 5713 5711 5709 5707 5705 5702 5700 5698 5696 5694 5692 5690 5687 5685 5682 5680 5677 5673 5670 5666 5663 5659 5655 5651 5647 5641 5636 5631 5627 5622 5618
5724 5722 5720 5719 5717 5715 5713 5711 5709 5707 5705 5703 5701 5698 5696 5693 5691 5689 5686 5684 5681 5678 5675 5672 5668 5665 5661 5657 5653 5648 5644 5639 5635 5630 5625 5620 5615 5610